Weather History for Clovis, NM

Change the Weather History Date:

Wednesday, March 6, 2013

  Actual Average Record
Temperature  
Mean Temperature 44 °F -  
Max Temperature 62 °F 58 °F 82 °F (1925)
Min Temperature 26 °F 29 °F 6 °F (1948)
Degree Days  
Heating Degree Days 21    
Moisture  
Dew Point 18 °F    
Average Humidity 40    
Maximum Humidity 64    
Minimum Humidity 20    
Precipitation  
Precipitation 0.00 in - - ()
Sea Level Pressure  
Sea Level Pressure 30.18 in    
Wind  
Wind Speed 12 mph (South)    
Max Wind Speed 28 mph    
Max Gust Speed 34 mph    
Visibility 10 miles    
Events      
Averages and records for this station are not official NWS values.
T = Trace of Precipitation, MM = Missing Value Source: NWS Daily Summary

Daily Weather History Graph

Daily Weather History Graph

Search for Another Location

Airport:

Trip Planner

Search our weather history database for the weather conditions in past years. The results will help you decide how hot, cold, wet, or windy it might be!

Date:

Astronomy

Mar. 06, 2013 Rise Set
Actual Time 6:14 AM MST 5:52 PM MST
Civil Twilight 5:49 AM MST 6:18 PM MST
Nautical Twilight 5:20 AM MST 6:47 PM MST
Astronomical Twilight 4:51 AM MST 7:16 PM MST
Moon 2:15 AM MST (3/6) 12:47 PM MST (3/6)
Length of Visible Light 12h 28m
Length of Day
11h 38m
Waning Crescent, 29% of the Moon is Illuminated
Mar 6
Waning Crescent
Mar 11
New
Mar 19
First Quarter
Mar 27
Full
Apr 2
Last Quarter

Hourly Weather History & Observations

Time (MST) Temp. Windchill Dew Point Humidity Pressure Visibility Wind Dir Wind Speed Gust Speed Precip Events Conditions
12:15 AM 32.0 °F 24.8 °F 15.8 °F 51% 30.31 in 10.0 mi South 8.1 mph - N/A   Clear
12:35 AM 30.2 °F 22.6 °F 15.8 °F 55% 30.30 in 10.0 mi SSW 8.1 mph - N/A   Clear
12:55 AM 30.2 °F 24.3 °F 15.8 °F 55% 30.30 in 10.0 mi SSW 5.8 mph - N/A   Clear
1:15 AM 28.4 °F 19.7 °F 15.8 °F 59% 30.30 in 10.0 mi SSW 9.2 mph - N/A   Clear
1:35 AM 28.4 °F 19.7 °F 15.8 °F 59% 30.30 in 10.0 mi SSW 9.2 mph - N/A   Clear
1:55 AM 28.4 °F 20.4 °F 15.8 °F 59% 30.30 in 10.0 mi SSW 8.1 mph - N/A   Clear
2:15 AM 28.4 °F 22.2 °F 15.8 °F 59% 30.29 in 10.0 mi SSW 5.8 mph - N/A   Clear
2:35 AM 26.6 °F 21.2 °F 15.8 °F 64% 30.27 in 10.0 mi SSW 4.6 mph - N/A   Clear
2:55 AM 26.6 °F 20.0 °F 15.8 °F 64% 30.27 in 10.0 mi SSW 5.8 mph - N/A   Clear
3:15 AM 26.6 °F 17.5 °F 15.8 °F 64% 30.27 in 10.0 mi SSW 9.2 mph - N/A   Clear
3:35 AM 28.4 °F 18.0 °F 17.6 °F 64% 30.26 in 10.0 mi SSW 12.7 mph - N/A   Clear
3:55 AM 30.2 °F 21.3 °F 15.8 °F 55% 30.26 in 10.0 mi SSW 10.4 mph - N/A   Clear
4:15 AM 28.4 °F 19.1 °F 15.8 °F 59% 30.26 in 10.0 mi South 10.4 mph - N/A   Clear
4:35 AM 28.4 °F 19.1 °F 15.8 °F 59% 30.27 in 10.0 mi SSW 10.4 mph - N/A   Clear
4:55 AM 28.4 °F 19.7 °F 15.8 °F 59% 30.27 in 10.0 mi South 9.2 mph - N/A   Clear
5:15 AM 28.4 °F 19.7 °F 15.8 °F 59% 30.27 in 10.0 mi SSW 9.2 mph - N/A   Clear
5:35 AM 28.4 °F 19.7 °F 15.8 °F 59% 30.27 in 10.0 mi SSW 9.2 mph - N/A   Clear
5:55 AM 28.4 °F 19.7 °F 15.8 °F 59% 30.28 in 10.0 mi SSW 9.2 mph - N/A   Clear
6:15 AM 28.4 °F 20.4 °F 14.0 °F 55% 30.28 in 10.0 mi South 8.1 mph - N/A   Clear
6:35 AM 28.4 °F 22.2 °F 17.6 °F 64% 30.29 in 10.0 mi South 5.8 mph - N/A   Clear
6:55 AM 30.2 °F 24.3 °F 15.8 °F 55% 30.29 in 10.0 mi South 5.8 mph - N/A   Clear
7:15 AM 32.0 °F 25.6 °F 17.6 °F 55% 30.29 in 10.0 mi South 6.9 mph - N/A   Clear
7:35 AM 33.8 °F 26.4 °F 17.6 °F 52% 30.30 in 10.0 mi South 9.2 mph - N/A   Clear
7:55 AM 35.6 °F 28.0 °F 15.8 °F 44% 30.30 in 10.0 mi South 10.4 mph - N/A   Clear
8:15 AM 37.4 °F 28.5 °F 15.8 °F 41% 30.30 in 10.0 mi South 15.0 mph - N/A   Clear
8:35 AM 39.2 °F 30.8 °F 17.6 °F 42% 30.29 in 10.0 mi South 15.0 mph - N/A   Clear
8:55 AM 41.0 °F 32.5 °F 17.6 °F 39% 30.29 in 10.0 mi South 17.3 mph - N/A   Clear
9:35 AM 46.4 °F 38.3 °F 17.6 °F 32% 30.27 in 10.0 mi South 23.0 mph 29.9 mph N/A   Clear
9:55 AM 48.2 °F - 19.4 °F 32% 30.26 in 10.0 mi South 24.2 mph 32.2 mph N/A   Clear
10:15 AM 50.0 °F - 19.4 °F 30% 30.25 in 10.0 mi South 21.9 mph 27.6 mph N/A   Clear
10:35 AM 51.8 °F - 21.2 °F 30% 30.24 in 10.0 mi South 26.5 mph 33.4 mph N/A   Clear
10:55 AM 53.6 °F - 21.2 °F 28% 30.22 in 10.0 mi South 27.6 mph 32.2 mph N/A   Partly Cloudy
11:15 AM 51.8 °F - 19.4 °F 28% 30.21 in 10.0 mi South 27.6 mph 33.4 mph N/A   Partly Cloudy
11:35 AM 55.4 °F - 21.2 °F 26% 30.21 in 10.0 mi South 26.5 mph 33.4 mph N/A   Mostly Cloudy
11:55 AM 55.4 °F - 21.2 °F 26% 30.20 in 10.0 mi SSW 24.2 mph 34.5 mph N/A   Mostly Cloudy
12:15 PM 55.4 °F - 21.2 °F 26% 30.18 in 10.0 mi South 25.3 mph 32.2 mph N/A   Mostly Cloudy
12:35 PM 57.2 °F - 21.2 °F 25% 30.17 in 10.0 mi South 21.9 mph 25.3 mph N/A   Overcast
12:55 PM 57.2 °F - 21.2 °F 25% 30.15 in 10.0 mi SSW 21.9 mph 33.4 mph N/A   Scattered Clouds
1:15 PM 59.0 °F - 21.2 °F 23% 30.14 in 10.0 mi SSW 20.7 mph 29.9 mph N/A   Mostly Cloudy
1:35 PM 57.2 °F - 19.4 °F 23% 30.13 in 10.0 mi SSW 23.0 mph 29.9 mph N/A   Mostly Cloudy
1:55 PM 59.0 °F - 21.2 °F 23% 30.11 in 10.0 mi South 19.6 mph 26.5 mph N/A   Mostly Cloudy
2:15 PM 60.8 °F - 23.0 °F 23% 30.11 in 10.0 mi SSW 18.4 mph 28.8 mph N/A   Partly Cloudy
2:35 PM 60.8 °F - 21.2 °F 22% 30.10 in 10.0 mi South 20.7 mph 27.6 mph N/A   Scattered Clouds
2:55 PM 62.6 °F - 21.2 °F 20% 30.09 in 10.0 mi South 23.0 mph 26.5 mph N/A   Scattered Clouds
3:15 PM 62.6 °F - 21.2 °F 20% 30.08 in 10.0 mi South 18.4 mph 29.9 mph N/A   Clear
3:35 PM 62.6 °F - 21.2 °F 20% 30.07 in 10.0 mi South 23.0 mph 28.8 mph N/A   Clear
3:55 PM 62.6 °F - 21.2 °F 20% 30.06 in 10.0 mi SSE 24.2 mph 28.8 mph N/A   Clear
4:15 PM 62.6 °F - 21.2 °F 20% 30.06 in 10.0 mi South 24.2 mph 28.8 mph N/A   Clear
4:35 PM 60.8 °F - 21.2 °F 22% 30.05 in 10.0 mi South 21.9 mph 28.8 mph N/A   Clear
4:55 PM 60.8 °F - 21.2 °F 22% 30.05 in 10.0 mi South 20.7 mph 27.6 mph N/A   Clear
5:15 PM 59.0 °F - 21.2 °F 23% 30.05 in 10.0 mi South 18.4 mph - N/A   Clear
5:35 PM 57.2 °F - 19.4 °F 23% 30.06 in 10.0 mi South 13.8 mph - N/A   Clear
5:55 PM 55.4 °F - 19.4 °F 25% 30.07 in 10.0 mi South 13.8 mph - N/A   Clear
6:15 PM 53.6 °F - 21.2 °F 28% 30.06 in 10.0 mi South 16.1 mph - N/A   Clear
6:35 PM 51.8 °F - 19.4 °F 28% 30.06 in 10.0 mi South 15.0 mph - N/A   Clear
6:55 PM 50.0 °F - 19.4 °F 30% 30.06 in 10.0 mi South 17.3 mph - N/A   Clear
7:35 PM 48.2 °F - 19.4 °F 32% 30.07 in 10.0 mi South 15.0 mph - N/A   Clear
7:55 PM 48.2 °F - 19.4 °F 32% 30.07 in 10.0 mi South 15.0 mph - N/A   Clear
8:35 PM 46.4 °F 42.4 °F 17.6 °F 32% 30.08 in 10.0 mi South 8.1 mph - N/A   Clear
8:55 PM 44.6 °F 40.7 °F 17.6 °F 34% 30.08 in 10.0 mi South 6.9 mph - N/A   Clear
9:15 PM 44.6 °F 40.7 °F 17.6 °F 34% 30.08 in 10.0 mi South 6.9 mph - N/A   Clear
9:35 PM 42.8 °F 37.5 °F 17.6 °F 36% 30.08 in 10.0 mi South 9.2 mph - N/A   Clear
9:55 PM 39.2 °F 32.5 °F 19.4 °F 45% 30.07 in 10.0 mi SSW 10.4 mph - N/A   Clear
10:15 PM 39.2 °F 35.9 °F 17.6 °F 42% 30.07 in 10.0 mi South 4.6 mph - N/A   Clear
10:35 PM 39.2 °F 33.6 °F 17.6 °F 42% 30.07 in 10.0 mi SSW 8.1 mph - N/A   Clear
10:55 PM 39.2 °F 32.0 °F 19.4 °F 45% 30.06 in 10.0 mi SSW 11.5 mph - N/A   Clear
11:15 PM 39.2 °F 33.0 °F 17.6 °F 42% 30.05 in 10.0 mi SSW 9.2 mph - N/A   Clear
11:35 PM 39.2 °F 35.9 °F 17.6 °F 42% 30.06 in 10.0 mi South 4.6 mph - N/A   Clear
11:55 PM 37.4 °F 31.4 °F 17.6 °F 45% 30.05 in 10.0 mi South 8.1 mph - N/A   Clear